KP4OZ Weather Reports


Display with metric or nautical units.
time (UTC)temp
F
wind
direction
speed
MPH
gust
MPH
rain 1hr
in
rain 24hr
in
rain mn
in
humidity
%
barometer
mb
20260507210806 85 69 6.0 15.0 0.00 0.00 0.00 72 1015.3
20260507210303 85 53 9.0 15.0 0.00 0.00 0.00 73 1015.2
20260507205759 85 114 9.0 14.0 0.00 0.00 0.00 72 1015.0
20260507205257 85 65 11.0 16.0 0.00 0.00 0.00 71 1015.0
20260507204752 86 34 10.0 13.0 0.00 0.00 0.00 70 1014.9
20260507204250 86 57 5.0 14.0 0.00 0.00 0.00 70 1014.8
20260507203748 85 69 5.0 15.0 0.00 0.00 0.00 72 1015.0
20260507203245 86 77 8.0 13.0 0.00 0.00 0.00 70 1014.8
20260507202741 86 78 8.0 10.0 0.00 0.00 0.00 70 1014.9
20260507202237 86 73 7.0 14.0 0.00 0.00 0.00 70 1015.0
20260507201732 87 73 5.0 11.0 0.00 0.00 0.00 70 1014.8
20260507201230 86 80 6.0 15.0 0.00 0.00 0.00 70 1015.0
20260507200726 87 84 8.0 10.0 0.00 0.00 0.00 70 1015.1
20260507200222 87 66 8.0 14.0 0.00 0.00 0.00 70 1015.1
20260507195718 87 71 6.0 11.0 0.00 0.00 0.00 69 1015.1
20260507195216 87 64 7.0 10.0 0.00 0.00 0.00 69 1015.1
20260507194712 87 70 4.0 13.0 0.00 0.00 0.00 71 1015.2
20260507194209 86 40 7.0 14.0 0.00 0.00 0.00 71 1015.1
20260507193705 87 36 5.0 15.0 0.00 0.00 0.00 71 1015.1
20260507193202 86 61 6.0 15.0 0.00 0.00 0.00 71 1015.0
20260507192658 87 48 9.0 14.0 0.00 0.00 0.00 69 1015.2
20260507192155 86 66 7.0 14.0 0.00 0.00 0.00 70 1015.4
20260507191651 87 55 7.0 10.0 0.00 0.00 0.00 70 1015.5
20260507191148 87 72 4.0 14.0 0.00 0.00 0.00 70 1015.3
20260507190645 87 61 6.0 13.0 0.00 0.00 0.00 70 1015.6
20260507190144 87 29 6.0 14.0 0.00 0.00 0.00 69 1015.4
20260507185642 88 40 5.0 11.0 0.00 0.00 0.00 67 1015.7
20260507185138 87 91 4.0 13.0 0.00 0.00 0.00 69 1015.5
20260507184636 87 74 6.0 10.0 0.00 0.00 0.00 69 1015.5
20260507184134 88 43 12.0 14.0 0.00 0.00 0.00 66 1015.8
20260507183630 87 57 8.0 14.0 0.00 0.00 0.00 69 1015.5
20260507183127 87 57 7.0 10.0 0.00 0.00 0.00 68 1015.5
20260507182623 87 54 5.0 14.0 0.00 0.00 0.00 68 1015.6
20260507182120 87 34 8.0 14.0 0.00 0.00 0.00 68 1015.8
20260507181616 87 76 11.0 19.0 0.00 0.00 0.00 69 1015.6
20260507181113 87 50 8.0 16.0 0.00 0.00 0.00 70 1015.7
20260507180609 87 58 10.0 17.0 0.00 0.00 0.00 69 1015.8
20260507180106 87 61 5.0 14.0 0.00 0.00 0.00 69 1015.7
20260507175602 87 58 9.0 18.0 0.00 0.00 0.00 69 1016.1
20260507175100 87 338 9.0 17.0 0.00 0.00 0.00 70 1015.9
20260507174557 87 66 10.0 15.0 0.00 0.00 0.00 70 1016.0
20260507174054 87 82 8.0 11.0 0.00 0.00 0.00 69 1016.1
20260507173551 87 50 7.0 13.0 0.00 0.00 0.00 69 1016.4
20260507173049 88 25 3.0 14.0 0.00 0.00 0.00 69 1016.3
20260507172544 88 29 8.0 13.0 0.00 0.00 0.00 68 1016.4
20260507172042 88 58 6.0 11.0 0.00 0.00 0.00 68 1016.5
20260507171537 88 61 8.0 13.0 0.00 0.00 0.00 66 1016.6
20260507171034 88 65 4.0 16.0 0.00 0.00 0.00 69 1016.6
20260507170530 88 41 8.0 13.0 0.00 0.00 0.00 67 1016.9
20260507170028 87 45 6.0 16.0 0.00 0.00 0.00 69 1017.1
20260507165523 87 66 9.0 14.0 0.00 0.00 0.00 67 1016.7
20260507165020 87 78 8.0 13.0 0.00 0.00 0.00 69 1017.2
20260507164516 86 49 4.0 9.0 0.00 0.00 0.00 70 1017.0
20260507164014 86 39 7.0 14.0 0.00 0.00 0.00 70 1017.2
20260507163510 87 15 7.0 10.0 0.00 0.00 0.00 70 1017.2
20260507163009 88 57 8.0 10.0 0.00 0.00 0.00 68 1017.2
20260507162503 86 47 7.0 14.0 0.00 0.00 0.00 70 1017.2
20260507162000 86 80 7.0 11.0 0.00 0.00 0.00 70 1017.3
20260507161456 87 65 7.0 17.0 0.00 0.00 0.00 69 1017.5
20260507160954 87 54 12.0 14.0 0.00 0.00 0.00 69 1017.5
20260507160449 85 49 4.0 11.0 0.00 0.00 0.00 73 1017.4
20260507155945 85 62 4.0 13.0 0.00 0.00 0.00 73 1017.6
20260507155441 85 88 6.0 10.0 0.00 0.00 0.00 73 1017.4
20260507154939 87 75 6.0 10.0 0.00 0.00 0.00 71 1017.6
20260507154435 87 73 6.0 13.0 0.00 0.00 0.00 70 1017.5
20260507153932 87 58 8.0 10.0 0.00 0.00 0.00 68 1017.6
20260507153429 87 45 7.0 10.0 0.00 0.00 0.00 69 1017.7
20260507152925 86 49 10.0 18.0 0.00 0.00 0.00 71 1017.7
20260507152421 87 60 9.0 14.0 0.00 0.00 0.00 69 1017.7
20260507151917 87 83 7.0 14.0 0.00 0.00 0.00 70 1017.7
20260507151414 87 30 10.0 13.0 0.00 0.00 0.00 69 1017.8
20260507150911 87 27 6.0 15.0 0.00 0.00 0.00 71 1017.8
20260507150408 87 153 4.0 9.0 0.00 0.00 0.00 70 1017.7
20260507145904 86 91 4.0 8.0 0.00 0.00 0.00 71 1017.8
20260507145400 87 43 6.0 13.0 0.00 0.00 0.00 71 1018.0
20260507144857 85 75 6.0 9.0 0.00 0.00 0.00 73 1017.7
20260507144355 85 80 5.0 14.0 0.00 0.00 0.00 73 1017.8
20260507143851 85 45 8.0 14.0 0.00 0.00 0.00 73 1017.8
20260507143349 87 78 6.0 13.0 0.00 0.00 0.00 70 1018.1
20260507142845 88 59 4.0 11.0 0.00 0.00 0.00 69 1018.0
20260507142341 88 18 6.0 11.0 0.00 0.00 0.00 67 1018.0
20260507141838 88 66 4.0 9.0 0.00 0.00 0.00 68 1018.0
20260507141335 87 54 3.0 9.0 0.00 0.00 0.00 70 1018.2
20260507140831 87 51 6.0 10.0 0.00 0.00 0.00 70 1017.9
20260507140328 88 57 4.0 11.0 0.00 0.00 0.00 68 1018.0
20260507135826 88 73 8.0 9.0 0.00 0.00 0.00 67 1018.2
20260507135322 87 100 3.0 7.0 0.00 0.00 0.00 70 1018.2
20260507134820 87 62 5.0 9.0 0.00 0.00 0.00 71 1018.2
20260507134316 87 44 8.0 10.0 0.00 0.00 0.00 69 1018.1
20260507133811 88 66 4.0 10.0 0.00 0.00 0.00 70 1018.2
20260507133308 87 12 3.0 9.0 0.00 0.00 0.00 64 1018.3
20260507132806 88 35 3.0 6.0 0.00 0.00 0.00 62 1018.3
20260507132306 88 42 2.0 8.0 0.00 0.00 0.00 63 1018.1
20260507131759 89 49 3.0 6.0 0.00 0.00 0.00 63 1017.9
20260507131256 87 67 1.0 3.0 0.00 0.00 0.00 66 1018.1
20260507130753 87 80 3.0 3.0 0.00 0.00 0.00 66 1017.8
20260507130251 87 71 2.0 4.0 0.00 0.00 0.00 66 1017.8
20260507125749 87 77 4.0 6.0 0.00 0.00 0.00 66 1017.8
20260507125246 86 77 3.0 4.0 0.00 0.00 0.00 67 1017.6
20260507124743 86 71 3.0 7.0 0.00 0.00 0.00 68 1017.5
20260507124240 85 134 3.0 4.0 0.00 0.00 0.00 70 1017.7
20260507123738 86 93 3.0 8.0 0.00 0.00 0.00 69 1017.8
20260507123236 85 65 2.0 3.0 0.00 0.00 0.00 70 1017.7
20260507122730 85 59 3.0 4.0 0.00 0.00 0.00 71 1017.7
20260507122227 85 41 4.0 6.0 0.00 0.00 0.00 70 1017.6
20260507121722 85 75 5.0 8.0 0.00 0.00 0.00 69 1017.8
20260507121218 85 60 1.0 3.0 0.00 0.00 0.00 70 1017.5
20260507120715 84 87 2.0 2.0 0.00 0.00 0.00 71 1017.6
20260507120212 84 121 2.0 4.0 0.00 0.00 0.00 71 1017.5
20260507115708 84 96 2.0 6.0 0.00 0.00 0.00 71 1017.4
20260507115204 84 71 4.0 6.0 0.00 0.00 0.00 70 1017.6
20260507114659 84 82 1.0 2.0 0.00 0.00 0.00 71 1017.5
20260507114157 84 179 1.0 2.0 0.00 0.00 0.00 71 1017.1
20260507113654 84 120 2.0 2.0 0.00 0.00 0.00 72 1017.2
20260507113151 83 85 0.0 3.0 0.00 0.00 0.00 74 1017.2
20260507112649 83 98 1.0 2.0 0.00 0.00 0.00 75 1017.2
20260507112145 83 186 2.0 4.0 0.00 0.00 0.00 74 1017.1
20260507111643 82 92 1.0 2.0 0.00 0.00 0.00 77 1017.0
20260507111139 82 191 1.0 3.0 0.00 0.00 0.00 77 1016.9
20260507110636 82 109 2.0 2.0 0.00 0.00 0.00 78 1017.1
20260507110132 81 123 0.0 2.0 0.00 0.00 0.00 79 1017.0
20260507105629 81 96 2.0 4.0 0.00 0.00 0.00 79 1016.9
20260507105125 81 167 1.0 4.0 0.00 0.00 0.00 80 1016.9
20260507104623 80 79 2.0 3.0 0.00 0.00 0.00 80 1017.1
20260507104119 80 116 0.0 2.0 0.00 0.00 0.00 81 1016.9
20260507103615 80 146 1.0 3.0 0.00 0.00 0.00 81 1017.1
20260507103112 80 117 1.0 1.0 0.00 0.00 0.00 81 1016.9
20260507102608 79 119 0.0 1.0 0.00 0.00 0.00 82 1016.9
20260507102105 79 136 0.0 1.0 0.00 0.00 0.00 82 1016.6
20260507101601 79 126 0.0 2.0 0.00 0.00 0.00 83 1016.8
20260507101057 78 117 0.0 1.0 0.00 0.00 0.00 84 1016.8
20260507100554 78 107 1.0 2.0 0.00 0.00 0.00 84 1016.8
20260507100052 78 113 1.0 1.0 0.00 0.00 0.00 84 1016.7
20260507095550 78 205 0.0 2.0 0.00 0.00 0.00 84 1016.4
20260507095046 78 190 2.0 2.0 0.00 0.00 0.00 84 1016.6
20260507094542 78 129 0.0 1.0 0.00 0.00 0.00 84 1016.4
20260507094039 78 121 0.0 1.0 0.00 0.00 0.00 83 1016.4
20260507093537 78 160 0.0 1.0 0.00 0.00 0.00 83 1016.4
20260507093036 78 140 1.0 2.0 0.00 0.00 0.00 83 1016.4
20260507092532 78 192 1.0 1.0 0.00 0.00 0.00 83 1016.3
20260507092028 78 114 0.0 2.0 0.00 0.00 0.00 83 1016.4
20260507091525 78 113 0.0 1.0 0.00 0.00 0.00 83 1016.3
20260507091021 78 109 1.0 2.0 0.00 0.00 0.00 83 1016.5
20260507090517 78 106 1.0 2.0 0.00 0.00 0.00 83 1016.8
20260507090014 78 137 1.0 2.0 0.00 0.00 0.00 84 1016.6
20260507085511 78 116 0.0 1.0 0.00 0.00 0.00 84 1016.5
20260507085008 78 109 0.0 1.0 0.00 0.00 0.00 84 1016.8
20260507084505 78 258 0.0 0.0 0.00 0.00 0.00 84 1016.7
20260507084002 78 262 0.0 0.0 0.00 0.00 0.00 83 1016.6
20260507083458 78 231 0.0 0.0 0.00 0.00 0.00 83 1016.7
20260507082954 78 267 0.0 0.0 0.00 0.00 0.00 83 1016.9
20260507082451 79 245 0.0 1.0 0.00 0.00 0.00 83 1016.6
20260507081947 79 265 0.0 1.0 0.00 0.00 0.00 83 1016.5
20260507081444 79 213 0.0 1.0 0.00 0.00 0.00 83 1016.6
20260507080941 79 217 0.0 1.0 0.00 0.00 0.00 83 1016.6
20260507080436 79 150 0.0 1.0 0.00 0.00 0.00 83 1016.6
20260507075932 79 123 0.0 1.0 0.00 0.00 0.00 83 1016.6
20260507075429 79 204 0.0 1.0 0.00 0.00 0.00 83 1016.6
20260507074925 79 209 1.0 1.0 0.00 0.00 0.00 83 1016.5
20260507074422 79 183 0.0 1.0 0.00 0.00 0.00 83 1016.5
20260507073920 79 218 1.0 1.0 0.00 0.00 0.00 83 1016.5
20260507073416 79 99 0.0 1.0 0.00 0.00 0.00 83 1016.5
20260507072913 79 147 0.0 1.0 0.00 0.00 0.00 83 1016.7
20260507072411 79 145 0.0 1.0 0.00 0.00 0.00 83 1016.6
20260507071908 79 224 0.0 0.0 0.00 0.00 0.00 82 1016.7
20260507071405 79 150 0.0 1.0 0.00 0.00 0.00 83 1016.8
20260507070901 79 142 0.0 2.0 0.00 0.00 0.00 82 1016.6
20260507070359 79 132 0.0 2.0 0.00 0.00 0.00 82 1016.8
20260507065855 79 152 1.0 2.0 0.00 0.00 0.00 82 1016.7
20260507065352 79 189 0.0 2.0 0.00 0.00 0.00 82 1016.8
20260507064849 80 194 0.0 1.0 0.00 0.00 0.00 82 1016.9
20260507064348 80 216 1.0 3.0 0.00 0.00 0.00 82 1016.8
20260507063845 80 204 0.0 2.0 0.00 0.00 0.00 81 1016.9
20260507063342 80 217 1.0 1.0 0.00 0.00 0.00 81 1017.0
20260507062838 80 165 1.0 1.0 0.00 0.00 0.00 81 1017.1
20260507062335 80 107 0.0 1.0 0.00 0.00 0.00 81 1017.2
20260507061833 80 125 0.0 1.0 0.00 0.00 0.00 81 1017.3
20260507061331 80 178 1.0 2.0 0.00 0.00 0.00 81 1017.2
20260507060829 80 133 1.0 2.0 0.00 0.00 0.00 81 1017.3
20260507060326 80 144 1.0 2.0 0.00 0.00 0.00 81 1017.3
20260507055823 80 201 1.0 2.0 0.00 0.00 0.00 81 1017.4
20260507055318 80 83 0.0 2.0 0.00 0.00 0.00 81 1017.4
20260507054815 80 201 2.0 2.0 0.00 0.00 0.00 81 1017.6
20260507054311 80 88 1.0 2.0 0.00 0.00 0.00 81 1017.4
20260507053808 80 210 0.0 3.0 0.00 0.00 0.00 81 1017.8
20260507053306 80 94 0.0 2.0 0.00 0.00 0.00 81 1017.7
20260507052805 80 127 2.0 3.0 0.00 0.00 0.00 81 1017.6
20260507052301 80 145 1.0 2.0 0.00 0.00 0.00 81 1017.8
20260507051759 80 183 1.0 1.0 0.00 0.00 0.00 81 1017.9
20260507051255 80 108 1.0 1.0 0.00 0.00 0.00 81 1018.0
20260507050752 80 135 1.0 3.0 0.00 0.00 0.00 80 1018.0
20260507050249 80 110 1.0 2.0 0.00 0.00 0.00 80 1017.7
20260507045746 81 122 2.0 4.0 0.00 0.00 0.00 80 1018.2
20260507045242 81 88 1.0 4.0 0.00 0.00 0.00 80 1018.2
20260507044740 81 179 2.0 3.0 0.00 0.00 0.00 80 1018.4
20260507044236 81 154 1.0 6.0 0.00 0.00 0.00 80 1018.3
20260507043732 81 97 2.0 4.0 0.00 0.00 0.00 80 1018.3
20260507043229 81 100 2.0 4.0 0.00 0.00 0.00 80 1018.4
20260507042725 81 96 2.0 3.0 0.00 0.00 0.00 80 1018.5
20260507042220 81 97 2.0 3.0 0.00 0.00 0.00 80 1018.4
20260507041718 81 82 1.0 3.0 0.00 0.00 0.00 80 1018.6
20260507041214 81 67 2.0 4.0 0.00 0.00 0.00 80 1018.7
20260507040711 81 94 3.0 4.0 0.00 0.00 0.00 80 1018.8
20260507040207 81 114 1.0 4.0 0.00 0.00 0.00 80 1018.9
20260507035703 81 93 2.0 3.0 0.00 0.00 0.00 79 1018.9
20260507035159 81 112 3.0 4.0 0.00 0.00 0.00 79 1019.0
20260507034656 81 118 1.0 3.0 0.00 0.00 0.00 79 1018.9
20260507034154 81 106 3.0 3.0 0.00 0.00 0.00 79 1018.9
20260507033652 81 119 2.0 7.0 0.00 0.00 0.00 79 1018.8
20260507033149 81 119 5.0 7.0 0.00 0.00 0.00 78 1019.0
20260507032647 81 136 1.0 3.0 0.00 0.00 0.00 78 1019.0
20260507032142 81 75 2.0 2.0 0.00 0.00 0.00 77 1019.0
20260507031639 81 91 2.0 3.0 0.00 0.00 0.00 77 1019.0
20260507031135 81 81 1.0 2.0 0.00 0.00 0.00 78 1019.0
20260507030632 81 112 2.0 3.0 0.00 0.00 0.00 78 1019.0
20260507030131 81 121 0.0 2.0 0.00 0.00 0.00 78 1019.0
20260507025627 81 191 0.0 2.0 0.00 0.00 0.00 78 1019.2
20260507025124 81 194 1.0 2.0 0.00 0.00 0.00 78 1018.9
20260507024622 81 144 0.0 2.0 0.00 0.00 0.00 78 1019.1
20260507024119 82 112 1.0 2.0 0.00 0.00 0.00 78 1019.1
20260507023614 82 182 0.0 2.0 0.00 0.00 0.00 77 1019.1
20260507023112 82 179 1.0 3.0 0.00 0.00 0.00 77 1019.1
20260507022609 82 85 2.0 3.0 0.00 0.00 0.00 77 1018.8
20260507022104 82 202 1.0 2.0 0.00 0.00 0.00 77 1019.0
20260507021601 82 108 2.0 4.0 0.00 0.00 0.00 77 1018.8
20260507021057 82 122 2.0 3.0 0.00 0.00 0.00 76 1018.8
20260507020555 82 102 3.0 6.0 0.00 0.00 0.00 76 1018.6
20260507020051 82 103 4.0 6.0 0.00 0.00 0.00 75 1018.6
20260507015550 82 119 1.0 3.0 0.00 0.00 0.00 75 1018.7
20260507015047 82 91 1.0 6.0 0.00 0.00 0.00 74 1018.6
20260507014543 82 78 2.0 6.0 0.00 0.00 0.00 74 1018.4
20260507014039 82 119 5.0 6.0 0.00 0.00 0.00 73 1018.5
20260507013536 82 129 2.0 3.0 0.00 0.00 0.00 73 1018.5
20260507013033 82 82 3.0 4.0 0.00 0.00 0.00 73 1018.3
20260507012530 82 110 1.0 3.0 0.00 0.00 0.00 73 1018.4
20260507012026 82 134 3.0 8.0 0.00 0.00 0.00 73 1018.3
20260507011524 82 119 2.0 4.0 0.00 0.00 0.00 72 1018.4
20260507011020 82 158 2.0 4.0 0.00 0.00 0.00 72 1018.3
20260507010514 83 125 2.0 6.0 0.00 0.00 0.00 72 1018.2
20260507010011 83 162 3.0 4.0 0.00 0.00 0.00 72 1018.2
20260507005509 83 98 3.0 6.0 0.00 0.00 0.00 71 1018.1
20260507005005 83 173 1.0 6.0 0.00 0.00 0.00 71 1018.0
20260507004502 83 97 4.0 8.0 0.00 0.00 0.00 72 1018.0
20260507004000 83 153 2.0 6.0 0.00 0.00 0.00 71 1018.1
20260507003454 83 167 4.0 7.0 0.00 0.00 0.00 71 1017.9
20260507002950 83 151 2.0 6.0 0.00 0.00 0.00 72 1018.0
20260507002447 83 192 5.0 7.0 0.00 0.00 0.00 71 1017.8
20260507001943 83 175 2.0 6.0 0.00 0.00 0.00 71 1018.0
20260507001440 83 183 2.0 6.0 0.00 0.00 0.00 71 1018.0
20260507000938 83 176 2.0 8.0 0.00 0.00 0.00 70 1018.0
20260507000435 84 183 1.0 4.0 0.00 0.00 0.00 69 1017.6
20260506235929 84 105 4.0 6.0 0.00 0.00 0.00 68 1017.5
20260506235426 84 132 4.0 6.0 0.00 0.00 0.00 68 1017.5
20260506234921 84 118 2.0 4.0 0.00 0.00 0.00 67 1017.4
20260506234420 84 140 2.0 8.0 0.00 0.00 0.00 66 1017.4
20260506233917 84 96 5.0 9.0 0.00 0.00 0.00 66 1017.1
20260506233413 84 192 2.0 6.0 0.00 0.00 0.00 66 1017.3
20260506232910 84 81 1.0 8.0 0.00 0.00 0.00 65 1017.2
20260506232406 85 126 3.0 8.0 0.00 0.00 0.00 66 1017.1
20260506231902 85 86 4.0 7.0 0.00 0.00 0.00 65 1017.0
20260506231400 85 115 5.0 11.0 0.00 0.00 0.00 65 1017.1
20260506230857 85 148 3.0 7.0 0.00 0.00 0.00 65 1017.0
20260506230354 85 91 4.0 6.0 0.00 0.00 0.00 64 1016.9
20260506225850 85 52 3.0 9.0 0.00 0.00 0.00 63 1016.6
20260506225348 85 119 3.0 9.0 0.00 0.00 0.00 62 1016.6
20260506224844 85 128 4.0 8.0 0.00 0.00 0.00 62 1016.5
20260506224342 86 91 6.0 8.0 0.00 0.00 0.00 63 1016.3
20260506223838 86 109 4.0 7.0 0.00 0.00 0.00 63 1016.4
20260506223333 86 91 3.0 11.0 0.00 0.00 0.00 63 1016.2
20260506222831 87 163 3.0 8.0 0.00 0.00 0.00 61 1016.1
20260506222326 87 145 5.0 8.0 0.00 0.00 0.00 60 1016.0
20260506221824 87 121 7.0 8.0 0.00 0.00 0.00 60 1016.2
20260506221322 87 104 2.0 8.0 0.00 0.00 0.00 61 1016.0
20260506220819 87 106 4.0 7.0 0.00 0.00 0.00 60 1015.9
20260506220320 88 102 7.0 9.0 0.00 0.00 0.00 59 1016.1
20260506215817 88 82 4.0 8.0 0.00 0.00 0.00 57 1015.8
20260506215312 88 185 6.0 8.0 0.00 0.00 0.00 57 1015.6
20260506214809 89 109 5.0 8.0 0.00 0.00 0.00 57 1015.7
20260506214305 89 137 5.0 11.0 0.00 0.00 0.00 57 1015.6
20260506213804 89 121 7.0 11.0 0.00 0.00 0.00 57 1015.5
20260506213300 89 121 5.0 11.0 0.00 0.00 0.00 55 1015.5
20260506212758 90 102 4.0 6.0 0.00 0.00 0.00 56 1015.4
20260506212254 90 176 3.0 7.0 0.00 0.00 0.00 55 1015.5
20260506211749 90 163 4.0 8.0 0.00 0.00 0.00 55 1015.5
20260506211245 90 167 5.0 8.0 0.00 0.00 0.00 55 1015.3